Location: Alsip
(41.6689°N, 87.7387°W)
Time: 09:43:12
(UTC+00:00)

GEOS 3 Rocket - Pass Details

Date: 29 October 2020
Orbit: 770 x 850 km, 115.0° (Epoch: 03 December)

Event Time Altitude Azimuth Distance (km) Brightness Sun altitude
Exits shadow 23:20:42 - 70° (ENE) 2,658 5.6 -6.6°
Reaches altitude 10° 23:21:34 10° 62° (ENE) 2,457 5.5 -6.8°
Maximum altitude 23:24:27 15° 30° (NNE) 2,136 5.4 -7.3°
Drops below altitude 10° 23:27:21 10° 357° (N) 2,477 6.1 -7.8°
Sets 23:30:41 0° 335° (NNW) 3,420 7.0 -8.4°
